Weather History for KMDT - October, 2013

Change the Weather History Date:

Wednesday, October 2, 2013

  Actual Average Record
Temperature  
Mean Temperature 70 °F 59 °F  
Max Temperature 85 °F 69 °F 87 °F (1927)
Min Temperature 55 °F 49 °F 34 °F (1899)
Degree Days  
Heating Degree Days 0 7  
Month to date heating degree days 0 13  
Since 1 July heating degree days 75 85  
Cooling Degree Days 5 1  
Month to date cooling degree days 8 2  
Year to date cooling degree days 1068 995  
Growing Degree Days 20 (Base 50)    
Moisture  
Dew Point 58 °F    
Average Humidity 70    
Maximum Humidity 100    
Minimum Humidity 40    
Precipitation  
Precipitation 0.00 in 0.12 in 3.95 in (1929)
Month to date precipitation 0.00 0.25  
Year to date precipitation 25.43 31.26  
Snow  
Snow 0.00 in - - ()
Month to date snowfall 0.0  
Since 1 July snowfall 0.0  
Since 1 September snowfall 0.0  
Snow Depth 0.00 in    
Sea Level Pressure  
Sea Level Pressure 30.02 in    
Wind  
Wind Speed 3 mph (WNW)    
Max Wind Speed 14 mph    
Max Gust Speed 17 mph    
Visibility 8 miles    
Events      
T = Trace of Precipitation, MM = Missing Value Source: NWS Daily Summary

Daily Weather History Graph

Daily Weather History Graph

Search for Another Location

Airport or City:

Trip Planner

Search our weather history database for the weather conditions in past years. The results will help you decide how hot, cold, wet, or windy it might be!

Date:

Astronomy

Oct. 02, 2013 Rise Set
Actual Time 7:04 AM EDT 6:47 PM EDT
Civil Twilight 6:37 AM EDT 7:14 PM EDT
Nautical Twilight 6:06 AM EDT 7:45 PM EDT
Astronomical Twilight 5:34 AM EDT 8:17 PM EDT
Moon 4:35 AM EDT (10/2) 5:22 PM EDT (10/2)
Length of Visible Light 12h 36m
Length of Day
11h 42m
Waning Crescent, 6% of the Moon is Illuminated
Oct 2
Waning Crescent
Oct 4
New
Oct 11
First Quarter
Oct 18
Full
Oct 26
Last Quarter

Hourly Weather History & Observations

Time (EDT) Temp. Heat Index Dew Point Humidity Pressure Visibility Wind Dir Wind Speed Gust Speed Precip Events Conditions
12:56 AM 59.0 °F - 55.9 °F 90% 30.00 in 6.0 mi Calm Calm - N/A   Clear
1:56 AM 59.0 °F - 55.9 °F 90% 30.01 in 5.0 mi Calm Calm - N/A   Clear
2:56 AM 55.9 °F - 55.0 °F 97% 30.01 in 5.0 mi Calm Calm - N/A   Clear
3:56 AM 57.0 °F - 55.0 °F 93% 30.00 in 5.0 mi Calm Calm - N/A   Clear
4:56 AM 57.0 °F - 54.0 °F 89% 30.00 in 5.0 mi Calm Calm - N/A   Clear
5:56 AM 57.0 °F - 55.0 °F 93% 30.01 in 5.0 mi Calm Calm - N/A   Clear
6:56 AM 55.9 °F - 54.0 °F 93% 30.03 in 4.0 mi Calm Calm - N/A   Clear
7:56 AM 60.1 °F - 57.0 °F 90% 30.04 in 4.0 mi Calm Calm - N/A   Clear
8:56 AM 64.0 °F - 57.9 °F 80% 30.06 in 7.0 mi Calm Calm - N/A   Clear
9:56 AM 66.9 °F - 57.9 °F 73% 30.06 in 10.0 mi Calm Calm - N/A   Clear
10:56 AM 72.0 °F - 60.1 °F 66% 30.06 in 10.0 mi Calm Calm - N/A   Clear
11:56 AM 77.0 °F - 60.1 °F 56% 30.04 in 10.0 mi WNW 8.1 mph - N/A   Clear
12:56 PM 79.0 °F - 60.1 °F 52% 30.03 in 10.0 mi Variable 5.8 mph - N/A   Scattered Clouds
1:56 PM 82.9 °F 82.8 °F 59.0 °F 44% 30.00 in 10.0 mi NW 10.4 mph - N/A   Scattered Clouds
2:56 PM 84.0 °F 83.5 °F 57.9 °F 41% 29.99 in 10.0 mi WNW 12.7 mph - N/A   Scattered Clouds
3:56 PM 84.0 °F 83.8 °F 59.0 °F 43% 29.97 in 10.0 mi WNW 8.1 mph - N/A   Scattered Clouds
4:56 PM 82.9 °F 82.6 °F 57.9 °F 42% 29.97 in 10.0 mi WNW 5.8 mph - N/A   Partly Cloudy
5:56 PM 80.1 °F 80.9 °F 60.1 °F 50% 29.98 in 10.0 mi NW 10.4 mph - N/A   Partly Cloudy
6:56 PM 75.0 °F - 59.0 °F 57% 29.99 in 10.0 mi NW 5.8 mph - N/A   Partly Cloudy
7:56 PM 72.0 °F - 59.0 °F 64% 30.01 in 10.0 mi WNW 3.5 mph - N/A   Clear
8:56 PM 64.0 °F - 57.9 °F 80% 30.02 in 10.0 mi Calm Calm - N/A   Clear
9:56 PM 66.9 °F - 59.0 °F 76% 30.02 in 9.0 mi Calm Calm - N/A   Clear
10:56 PM 66.9 °F - 61.0 °F 81% 30.04 in 9.0 mi Calm Calm - N/A   Clear
11:56 PM 63.0 °F - 59.0 °F 87% 30.05 in 8.0 mi Calm Calm - N/A   Clear